Location: Martley
(52.2333°N, 2.3667°W)
Time: 05:29:14
(UTC+00:00)

SKYMED 2 - Pass Details

Date: 11 December 2019
Orbit: 621 x 623 km, 97.9° (Epoch: 26 January)

Event Time Altitude Azimuth Distance (km) Brightness Sun altitude
Rises 05:13:19 0° 166° (SSE) 2,894 7.2 -25.4°
Reaches altitude 10° 05:15:29 10° 168° (SSE) 1,992 6.3 -25.0°
Enters shadow 05:19:09 62° 183° (S) 703 3.7 -24.5°
